Weather History for Walhalla, ND

Change the Weather History Date:

Saturday, March 30, 2013

  Actual Average (KGAF) Record (KGAF)
Temperature  
Mean Temperature 34 °F -  
Max Temperature 37 °F 42 °F 72 °F (1967)
Min Temperature 30 °F 23 °F -14 °F (1975)
Degree Days  
Heating Degree Days 32    
Moisture  
Dew Point 29 °F    
Average Humidity 84    
Maximum Humidity 100    
Minimum Humidity 52    
Precipitation  
Precipitation 0.02 in - - ()
Sea Level Pressure  
Sea Level Pressure 29.93 in    
Wind  
Wind Speed 6 mph (NW)    
Max Wind Speed 12 mph    
Max Gust Speed 17 mph    
Visibility 10 miles    
Events Snow    
Averages and records for this station are not official NWS values.
T = Trace of Precipitation, MM = Missing Value Source: NWS Daily Summary

Daily Weather History Graph

Daily Weather History Graph

Search for Another Location

Airport:

Trip Planner

Search our weather history database for the weather conditions in past years. The results will help you decide how hot, cold, wet, or windy it might be!

Date:

Astronomy

Mar. 30, 2013 Rise Set
Actual Time 7:12 AM CDT 8:00 PM CDT
Civil Twilight 6:40 AM CDT 8:32 PM CDT
Nautical Twilight 6:02 AM CDT 9:10 PM CDT
Astronomical Twilight 5:22 AM CDT 9:50 PM CDT
Moon No Moon Rise 8:49 AM CDT (3/30)
Length of Visible Light 13h 51m
Length of Day
12h 47m
Waning Gibbous, 86% of the Moon is Illuminated
Mar 30
Waning Gibbous
Apr 2
Last Quarter
Apr 10
New
Apr 18
First Quarter
Apr 25
Full

Hourly Weather History & Observations

Time (CDT) Temp. Windchill Dew Point Humidity Pressure Visibility Wind Dir Wind Speed Gust Speed Precip Events Conditions
12:15 AM 32.0 °F - 32.0 °F 100% 29.96 in 7.0 mi Calm Calm - N/A   Mostly Cloudy
12:35 AM 32.0 °F 28.7 °F 32.0 °F 100% 29.96 in 7.0 mi SE 3.5 mph - N/A   Overcast
12:55 AM 32.0 °F 28.7 °F 32.0 °F 100% 29.95 in 7.0 mi SSW 3.5 mph - N/A   Overcast
1:15 AM 32.0 °F 25.6 °F 32.0 °F 100% 29.94 in 9.0 mi SW 6.9 mph - N/A   Overcast
1:35 AM 33.8 °F 26.4 °F 33.8 °F 100% 29.93 in 10.0 mi SW 9.2 mph - N/A   Overcast
1:55 AM 33.8 °F 28.6 °F 33.8 °F 100% 29.94 in 10.0 mi WNW 5.8 mph - N/A   Overcast
2:15 AM 33.8 °F 27.0 °F 33.8 °F 100% 29.94 in 9.0 mi WNW 8.1 mph - N/A   Overcast
2:35 AM 32.0 °F 27.5 °F 32.0 °F 100% 29.94 in 10.0 mi NW 4.6 mph - N/A   Overcast
2:55 AM 32.0 °F 28.7 °F 32.0 °F 100% 29.93 in 8.0 mi West 3.5 mph - N/A   Overcast
3:15 AM 32.0 °F 28.7 °F 32.0 °F 100% 29.93 in 9.0 mi WSW 3.5 mph - N/A   Overcast
3:35 AM 32.0 °F 27.5 °F 32.0 °F 100% 29.93 in 10.0 mi West 4.6 mph - N/A   Overcast
3:55 AM 33.8 °F 29.6 °F 32.0 °F 93% 29.93 in 10.0 mi WNW 4.6 mph - N/A   Scattered Clouds
4:15 AM 33.8 °F - 32.0 °F 93% 29.92 in 10.0 mi Calm Calm - N/A   Scattered Clouds
4:35 AM 32.0 °F 26.4 °F 32.0 °F 100% 29.92 in 10.0 mi NNW 5.8 mph - N/A   Scattered Clouds
4:55 AM 33.8 °F 30.8 °F 32.0 °F 93% 29.92 in 10.0 mi NW 3.5 mph - N/A   Partly Cloudy
5:15 AM 32.0 °F 27.5 °F 32.0 °F 100% 29.92 in 10.0 mi NNW 4.6 mph - N/A   Clear
5:35 AM 32.0 °F 28.7 °F 32.0 °F 100% 29.93 in 10.0 mi NNW 3.5 mph - N/A   Clear
5:55 AM 30.2 °F 24.3 °F 30.2 °F 100% 29.92 in 10.0 mi NNW 5.8 mph - N/A   Mostly Cloudy
6:15 AM 32.0 °F 28.7 °F 32.0 °F 100% 29.93 in 10.0 mi NW 3.5 mph - N/A   Overcast
6:35 AM 32.0 °F 26.4 °F 32.0 °F 100% 29.92 in 10.0 mi NW 5.8 mph - N/A   Overcast
6:55 AM 30.2 °F 23.4 °F 30.2 °F 100% 29.93 in 10.0 mi WNW 6.9 mph - N/A   Scattered Clouds
7:15 AM 30.2 °F 25.4 °F 30.2 °F 100% 29.93 in 9.0 mi NW 4.6 mph - N/A   Mostly Cloudy
7:35 AM 32.0 °F 25.6 °F 32.0 °F 100% 29.94 in 9.0 mi WNW 6.9 mph - N/A   Overcast
7:55 AM 30.2 °F 23.4 °F 30.2 °F 100% 29.94 in 8.0 mi NW 6.9 mph - N/A   Scattered Clouds
8:15 AM 32.0 °F 25.6 °F 30.2 °F 93% 29.94 in 9.0 mi WNW 6.9 mph - N/A   Clear
8:35 AM 32.0 °F 24.8 °F 28.4 °F 87% 29.94 in 10.0 mi WNW 8.1 mph - N/A   Scattered Clouds
8:55 AM 32.0 °F 24.8 °F 28.4 °F 87% 29.94 in 10.0 mi NW 8.1 mph - N/A   Mostly Cloudy
9:15 AM 32.0 °F 24.2 °F 28.4 °F 87% 29.94 in 10.0 mi NW 9.2 mph - N/A   Scattered Clouds
9:35 AM 33.8 °F 26.4 °F 28.4 °F 81% 29.94 in 10.0 mi NW 9.2 mph - N/A   Clear
9:55 AM 33.8 °F 25.3 °F 28.4 °F 81% 29.95 in 10.0 mi NW 11.5 mph - N/A   Clear
10:15 AM 35.6 °F 27.5 °F 26.6 °F 70% 29.95 in 10.0 mi NW 11.5 mph - N/A   Clear
10:35 AM 35.6 °F 27.5 °F 26.6 °F 70% 29.95 in 10.0 mi NW 11.5 mph - N/A   Clear
10:55 AM 35.6 °F 28.0 °F 26.6 °F 70% 29.96 in 10.0 mi NNW 10.4 mph - N/A   Partly Cloudy
11:15 AM 35.6 °F 28.6 °F 26.6 °F 70% 29.96 in 10.0 mi NNW 9.2 mph - N/A   Partly Cloudy
11:35 AM 35.6 °F 29.9 °F 26.6 °F 70% 29.96 in 10.0 mi NW 6.9 mph - N/A   Clear
11:55 AM 35.6 °F 28.6 °F 26.6 °F 70% 29.96 in 10.0 mi NNW 9.2 mph - N/A   Clear
12:15 PM 37.4 °F 31.4 °F 26.6 °F 65% 29.96 in 10.0 mi NNW 8.1 mph - N/A   Clear
12:35 PM 37.4 °F 31.4 °F 28.4 °F 70% 29.96 in 10.0 mi NNW 8.1 mph - N/A   Clear
12:55 PM 37.4 °F 30.3 °F 26.6 °F 65% 29.96 in 10.0 mi NNW 10.4 mph - N/A   Clear
1:15 PM 37.4 °F 30.8 °F 26.6 °F 65% 29.96 in 10.0 mi NNW 9.2 mph - N/A   Clear
1:35 PM 37.4 °F 29.8 °F 24.8 °F 60% 29.96 in 10.0 mi NNW 11.5 mph - N/A   Clear
1:55 PM 37.4 °F 31.4 °F 24.8 °F 60% 29.96 in 10.0 mi NNW 8.1 mph - N/A   Clear
2:15 PM 37.4 °F 30.8 °F 24.8 °F 60% 29.96 in 10.0 mi NNW 9.2 mph - N/A   Clear
2:35 PM 37.4 °F 31.4 °F 24.8 °F 60% 29.96 in 10.0 mi NNW 8.1 mph - N/A   Partly Cloudy
2:55 PM 37.4 °F 31.4 °F 23.0 °F 56% 29.96 in 10.0 mi NNW 8.1 mph - N/A   Clear
3:15 PM 37.4 °F 30.3 °F 21.2 °F 52% 29.95 in 10.0 mi NNW 10.4 mph - N/A   Clear
3:35 PM 37.4 °F 31.4 °F 23.0 °F 56% 29.95 in 10.0 mi North 8.1 mph - N/A   Mostly Cloudy
3:55 PM 37.4 °F 31.4 °F 23.0 °F 56% 29.95 in 10.0 mi North 8.1 mph - N/A   Scattered Clouds
4:15 PM 37.4 °F 30.8 °F 21.2 °F 52% 29.94 in 10.0 mi North 9.2 mph - N/A   Clear
4:35 PM 37.4 °F 30.8 °F 21.2 °F 52% 29.94 in 10.0 mi North 9.2 mph - N/A   Mostly Cloudy
4:55 PM 37.4 °F 32.8 °F 21.2 °F 52% 29.94 in 10.0 mi NNW 5.8 mph - N/A   Overcast
5:15 PM 35.6 °F 29.2 °F 23.0 °F 60% 29.93 in 10.0 mi North 8.1 mph - N/A   Overcast
5:35 PM 35.6 °F 29.2 °F 21.2 °F 56% 29.93 in 10.0 mi North 8.1 mph - N/A   Mostly Cloudy
5:55 PM 37.4 °F 33.8 °F 21.2 °F 52% 29.93 in 10.0 mi NNW 4.6 mph - N/A   Mostly Cloudy
6:15 PM 35.6 °F 32.8 °F 24.8 °F 65% 29.93 in 10.0 mi WNW 3.5 mph - N/A   Overcast
6:35 PM 35.6 °F - 24.8 °F 65% 29.92 in 10.0 mi Calm Calm - N/A   Mostly Cloudy
6:55 PM 35.6 °F 28.0 °F 26.6 °F 70% 29.91 in 10.0 mi WSW 10.4 mph 17.3 mph N/A   Overcast
7:15 PM 32.0 °F 24.8 °F 32.0 °F 100% 29.91 in 3.0 mi West 8.1 mph 16.1 mph N/A Snow Light Snow
7:35 PM 32.0 °F 26.4 °F 32.0 °F 100% 29.90 in 5.0 mi WSW 5.8 mph - 0.01 in Snow Light Snow
7:55 PM 32.0 °F 27.5 °F 32.0 °F 100% 29.89 in 10.0 mi WSW 4.6 mph - 0.02 in   Overcast
8:15 PM 32.0 °F 26.4 °F 32.0 °F 100% 29.88 in 10.0 mi WSW 5.8 mph - N/A   Overcast
8:35 PM 32.0 °F 28.7 °F 32.0 °F 100% 29.88 in 10.0 mi SW 3.5 mph - N/A   Overcast
8:55 PM 32.0 °F - 32.0 °F 100% 29.88 in 10.0 mi Calm Calm - N/A   Overcast
9:15 PM 32.0 °F 28.7 °F 32.0 °F 100% 29.88 in 10.0 mi WSW 3.5 mph - N/A   Overcast
9:35 PM 32.0 °F 28.7 °F 32.0 °F 100% 29.88 in 10.0 mi West 3.5 mph - N/A   Overcast
9:55 PM 32.0 °F 28.7 °F 32.0 °F 100% 29.87 in 10.0 mi West 3.5 mph - N/A   Overcast
10:15 PM 32.0 °F 25.6 °F 32.0 °F 100% 29.87 in 10.0 mi West 6.9 mph - N/A   Overcast
10:35 PM 30.2 °F 22.6 °F 30.2 °F 100% 29.86 in 10.0 mi West 8.1 mph - N/A   Overcast
10:55 PM 32.0 °F 26.4 °F 32.0 °F 100% 29.86 in 10.0 mi WNW 5.8 mph - N/A   Overcast
11:15 PM 30.2 °F 23.4 °F 30.2 °F 100% 29.86 in 10.0 mi WNW 6.9 mph - N/A   Overcast
11:35 PM 30.2 °F 22.6 °F 30.2 °F 100% 29.85 in 10.0 mi West 8.1 mph - N/A   Mostly Cloudy
11:55 PM 30.2 °F 21.9 °F 30.2 °F 100% 29.85 in 10.0 mi WNW 9.2 mph - N/A   Mostly Cloudy